Time,TemperatureF,DewpointF,PressureIn,WindDirection,WindDirectionDegrees,WindSpeedMPH,WindSpeedGustMPH,Humidity,HourlyPrecipIn,Conditions,Clouds,dailyrainin,SolarRadiationWatts/m^2,SoftwareType,DateUTC
2013-06-12 00:00:00,57.7,56.6,29.53,West,261,0.0,2.0,96,-1.27,,,0.00,0002,Weather View 32 v70,2013-06-12 04:00:00,
2013-06-12 00:01:00,57.7,56.6,29.53,West,261,0.0,2.0,96,-1.27,,,0.00,0002,Weather View 32 v70,2013-06-12 04:01:00,
2013-06-12 00:06:00,57.7,56.6,29.52,West,259,0.0,2.0,96,-1.26,,,0.01,0002,Weather View 32 v70,2013-06-12 04:06:00,
2013-06-12 00:11:00,57.8,56.7,29.52,WSW,256,0.0,2.0,96,-1.26,,,0.01,0002,Weather View 32 v70,2013-06-12 04:11:00,
2013-06-12 00:16:00,57.8,56.7,29.53,WSW,255,1.0,2.0,96,-1.26,,,0.01,0002,Weather View 32 v70,2013-06-12 04:16:00,
2013-06-12 00:21:00,57.8,56.7,29.53,SW,215,1.0,2.0,96,-1.26,,,0.01,0002,Weather View 32 v70,2013-06-12 04:21:00,
2013-06-12 00:26:00,57.9,56.8,29.52,SW,215,0.0,2.0,96,-1.26,,,0.01,0002,Weather View 32 v70,2013-06-12 04:26:00,
2013-06-12 00:31:00,57.9,56.8,29.52,SW,215,1.0,2.0,96,-1.26,,,0.01,0002,Weather View 32 v70,2013-06-12 04:31:00,
2013-06-12 00:36:00,57.9,56.8,29.52,SW,216,1.0,2.0,96,-1.26,,,0.01,0002,Weather View 32 v70,2013-06-12 04:36:00,
2013-06-12 00:42:00,57.9,56.8,29.52,SW,215,1.0,2.0,96,-1.26,,,0.01,0002,Weather View 32 v70,2013-06-12 04:42:00,
2013-06-12 00:47:00,57.9,56.8,29.52,SW,216,0.0,2.0,96,-1.26,,,0.01,0002,Weather View 32 v70,2013-06-12 04:47:00,
2013-06-12 00:52:00,57.8,56.7,29.52,SW,215,0.0,2.0,96,-1.26,,,0.01,0002,Weather View 32 v70,2013-06-12 04:52:00,
2013-06-12 00:57:00,57.8,56.7,29.52,SW,216,0.0,2.0,96,-1.26,,,0.01,0002,Weather View 32 v70,2013-06-12 04:57:00,
2013-06-12 01:02:00,57.7,56.6,29.52,SW,216,0.0,2.0,96,0.01,,,0.01,0002,Weather View 32 v70,2013-06-12 05:02:00,
2013-06-12 01:07:00,57.7,56.6,29.52,SW,216,0.0,2.0,96,0.00,,,0.01,0002,Weather View 32 v70,2013-06-12 05:07:00,
2013-06-12 01:12:00,57.6,56.5,29.51,SW,216,0.0,1.0,96,0.01,,,0.02,0002,Weather View 32 v70,2013-06-12 05:12:00,
2013-06-12 01:17:00,57.5,56.4,29.51,SW,216,0.0,1.0,96,0.01,,,0.02,0002,Weather View 32 v70,2013-06-12 05:17:00,
2013-06-12 01:22:00,57.5,56.4,29.51,SW,222,1.0,1.0,96,0.01,,,0.02,0002,Weather View 32 v70,2013-06-12 05:22:00,
2013-06-12 01:27:00,57.4,56.3,29.51,SW,223,1.0,1.0,96,0.01,,,0.02,0002,Weather View 32 v70,2013-06-12 05:27:00,
2013-06-12 01:32:00,57.4,56.3,29.51,NW,305,1.0,1.0,96,0.02,,,0.03,0002,Weather View 32 v70,2013-06-12 05:32:00,
2013-06-12 01:37:00,57.3,56.2,29.51,NW,319,0.0,2.0,96,0.02,,,0.03,0002,Weather View 32 v70,2013-06-12 05:37:00,
2013-06-12 01:42:00,57.3,56.2,29.51,NW,320,0.0,2.0,96,0.02,,,0.03,0002,Weather View 32 v70,2013-06-12 05:42:00,
2013-06-12 01:47:00,57.3,56.2,29.51,NW,320,0.0,2.0,96,0.02,,,0.03,0002,Weather View 32 v70,2013-06-12 05:47:00,
2013-06-12 01:52:00,57.3,56.2,29.51,NW,321,1.0,2.0,96,0.02,,,0.03,0002,Weather View 32 v70,2013-06-12 05:52:00,
2013-06-12 01:57:00,57.4,56.3,29.51,NW,322,0.0,2.0,96,0.02,,,0.03,0002,Weather View 32 v70,2013-06-12 05:57:00,
2013-06-12 02:02:00,57.3,56.2,29.50,NW,322,0.0,2.0,96,0.03,,,0.04,0002,Weather View 32 v70,2013-06-12 06:02:00,
2013-06-12 02:07:00,57.4,56.3,29.51,NW,322,0.0,2.0,96,0.03,,,0.04,0002,Weather View 32 v70,2013-06-12 06:07:00,
2013-06-12 02:12:00,57.5,56.4,29.50,NE,55,0.0,3.0,96,0.02,,,0.04,0002,Weather View 32 v70,2013-06-12 06:12:00,
2013-06-12 02:17:00,57.6,56.5,29.50,NE,55,0.0,3.0,96,0.02,,,0.04,0002,Weather View 32 v70,2013-06-12 06:17:00,
2013-06-12 02:22:00,57.5,56.4,29.50,NE,52,0.0,3.0,96,0.02,,,0.04,0002,Weather View 32 v70,2013-06-12 06:22:00,
2013-06-12 02:27:00,57.6,56.5,29.50,NE,49,0.0,3.0,96,0.02,,,0.04,0002,Weather View 32 v70,2013-06-12 06:27:00,
2013-06-12 02:32:00,57.5,56.4,29.50,NE,46,1.0,3.0,96,0.02,,,0.05,0002,Weather View 32 v70,2013-06-12 06:32:00,
2013-06-12 02:37:00,57.5,56.4,29.50,North,354,1.0,3.0,96,0.02,,,0.05,0002,Weather View 32 v70,2013-06-12 06:37:00,
2013-06-12 02:42:00,57.6,56.5,29.50,North,355,0.0,3.0,96,0.02,,,0.05,0002,Weather View 32 v70,2013-06-12 06:42:00,
2013-06-12 02:47:00,57.5,56.4,29.50,North,8,1.0,3.0,96,0.02,,,0.05,0002,Weather View 32 v70,2013-06-12 06:47:00,
2013-06-12 02:52:00,57.5,56.4,29.50,NNE,16,0.0,3.0,96,0.02,,,0.05,0002,Weather View 32 v70,2013-06-12 06:52:00,
2013-06-12 02:57:00,57.5,56.4,29.49,NE,37,1.0,3.0,96,0.02,,,0.05,0002,Weather View 32 v70,2013-06-12 06:57:00,
2013-06-12 03:02:00,57.5,56.4,29.50,ENE,61,1.0,3.0,96,0.01,,,0.05,0002,Weather View 32 v70,2013-06-12 07:02:00,
2013-06-12 03:07:00,57.6,56.5,29.50,NE,35,0.0,3.0,96,0.01,,,0.05,0002,Weather View 32 v70,2013-06-12 07:07:00,
2013-06-12 03:12:00,57.5,56.4,29.49,NNE,21,0.0,3.0,96,0.01,,,0.05,0002,Weather View 32 v70,2013-06-12 07:12:00,
2013-06-12 03:17:00,57.6,56.5,29.50,NNW,338,0.0,3.0,96,0.01,,,0.05,0002,Weather View 32 v70,2013-06-12 07:17:00,
2013-06-12 03:22:00,57.6,56.8,29.49,SSE,152,2.0,3.0,97,0.01,,,0.05,0002,Weather View 32 v70,2013-06-12 07:22:00,
2013-06-12 03:27:00,57.6,56.8,29.50,East,91,0.0,3.0,97,0.01,,,0.05,0002,Weather View 32 v70,2013-06-12 07:27:00,
2013-06-12 03:32:00,57.6,56.8,29.50,East,91,0.0,3.0,97,0.00,,,0.05,0002,Weather View 32 v70,2013-06-12 07:32:00,
2013-06-12 03:37:00,57.6,56.8,29.50,NE,45,0.0,3.0,97,0.00,,,0.05,0002,Weather View 32 v70,2013-06-12 07:37:00,
2013-06-12 03:42:00,57.6,56.8,29.50,NE,45,0.0,3.0,97,0.00,,,0.05,0002,Weather View 32 v70,2013-06-12 07:42:00,
2013-06-12 03:47:00,57.7,56.9,29.50,NE,45,0.0,3.0,97,0.00,,,0.05,0002,Weather View 32 v70,2013-06-12 07:47:00,
2013-06-12 03:52:00,57.7,56.9,29.50,North,2,0.0,3.0,97,0.00,,,0.05,0002,Weather View 32 v70,2013-06-12 07:52:00,
2013-06-12 03:57:00,57.7,56.9,29.50,North,3,0.0,2.0,97,0.00,,,0.05,0002,Weather View 32 v70,2013-06-12 07:57:00,
2013-06-12 04:02:00,57.7,56.9,29.50,North,2,0.0,2.0,97,0.00,,,0.05,0002,Weather View 32 v70,2013-06-12 08:02:00,
2013-06-12 04:07:00,57.7,56.9,29.50,North,2,0.0,2.0,97,0.00,,,0.05,0002,Weather View 32 v70,2013-06-12 08:07:00,
2013-06-12 04:12:00,57.7,56.9,29.50,SW,235,1.0,2.0,97,0.01,,,0.06,0002,Weather View 32 v70,2013-06-12 08:12:00,
2013-06-12 04:17:00,57.7,56.9,29.50,NNE,27,0.0,2.0,97,0.01,,,0.06,0002,Weather View 32 v70,2013-06-12 08:17:00,
2013-06-12 04:22:00,57.7,56.9,29.50,NNE,27,1.0,2.0,97,0.01,,,0.06,0002,Weather View 32 v70,2013-06-12 08:22:00,
2013-06-12 04:27:00,57.7,56.9,29.50,NNE,28,1.0,2.0,97,0.01,,,0.06,0002,Weather View 32 v70,2013-06-12 08:27:00,
2013-06-12 04:32:00,57.7,56.9,29.50,NNE,29,1.0,2.0,97,0.01,,,0.06,0002,Weather View 32 v70,2013-06-12 08:32:00,
2013-06-12 04:37:00,57.7,56.9,29.50,NNE,29,1.0,2.0,97,0.01,,,0.06,0002,Weather View 32 v70,2013-06-12 08:37:00,
2013-06-12 04:42:00,57.6,56.8,29.50,North,359,2.0,2.0,97,0.01,,,0.06,0002,Weather View 32 v70,2013-06-12 08:42:00,
2013-06-12 04:48:00,57.6,56.8,29.51,NE,34,1.0,2.0,97,0.01,,,0.06,0002,Weather View 32 v70,2013-06-12 08:48:00,
2013-06-12 04:53:00,57.7,56.9,29.51,NNE,16,1.0,3.0,97,0.42,,,0.07,0002,Weather View 32 v70,2013-06-12 08:53:00,
2013-06-12 04:58:00,57.7,56.9,29.51,North,8,1.0,3.0,97,0.02,,,0.07,0002,Weather View 32 v70,2013-06-12 08:58:00,
2013-06-12 05:03:00,57.7,56.9,29.52,East,96,2.0,3.0,97,0.02,,,0.07,0002,Weather View 32 v70,2013-06-12 09:03:00,
2013-06-12 05:08:00,57.7,56.9,29.52,NNE,21,0.0,3.0,97,0.02,,,0.07,0003,Weather View 32 v70,2013-06-12 09:08:00,
2013-06-12 05:13:00,57.7,56.9,29.52,ENE,73,2.0,3.0,97,0.01,,,0.07,0003,Weather View 32 v70,2013-06-12 09:13:00,
2013-06-12 05:18:00,57.6,56.8,29.52,NNE,18,1.0,3.0,97,0.01,,,0.07,0004,Weather View 32 v70,2013-06-12 09:18:00,
2013-06-12 05:23:00,57.6,56.8,29.52,NNE,26,1.0,4.0,97,0.01,,,0.07,0005,Weather View 32 v70,2013-06-12 09:23:00,
2013-06-12 05:28:00,57.5,56.7,29.53,NE,56,2.0,4.0,97,0.01,,,0.07,0005,Weather View 32 v70,2013-06-12 09:28:00,
2013-06-12 05:33:00,57.4,56.6,29.53,NNE,19,4.0,9.0,97,0.01,,,0.07,0005,Weather View 32 v70,2013-06-12 09:33:00,
2013-06-12 05:38:00,57.3,56.5,29.53,NNW,346,1.0,9.0,97,0.01,,,0.07,0009,Weather View 32 v70,2013-06-12 09:38:00,
2013-06-12 05:43:00,57.2,56.4,29.53,ENE,70,3.0,9.0,97,0.01,,,0.07,0015,Weather View 32 v70,2013-06-12 09:43:00,
2013-06-12 05:48:00,57.2,56.4,29.53,NNE,30,2.0,9.0,97,0.01,,,0.07,0023,Weather View 32 v70,2013-06-12 09:48:00,
2013-06-12 05:53:00,57.1,56.3,29.53,North,2,2.0,9.0,97,0.00,,,0.07,0020,Weather View 32 v70,2013-06-12 09:53:00,
2013-06-12 05:58:00,57.2,56.4,29.53,ESE,121,2.0,9.0,97,0.00,,,0.07,0027,Weather View 32 v70,2013-06-12 09:58:00,
2013-06-12 06:03:00,57.3,56.5,29.53,NE,54,1.0,9.0,97,0.00,,,0.07,0037,Weather View 32 v70,2013-06-12 10:03:00,
2013-06-12 06:08:00,57.4,56.6,29.53,NNE,20,2.0,9.0,97,0.01,,,0.08,0054,Weather View 32 v70,2013-06-12 10:08:00,
2013-06-12 06:13:00,57.5,56.7,29.54,North,4,1.0,9.0,97,0.01,,,0.08,0052,Weather View 32 v70,2013-06-12 10:13:00,
2013-06-12 06:18:00,57.7,56.9,29.54,SSE,157,1.0,9.0,97,0.01,,,0.08,0054,Weather View 32 v70,2013-06-12 10:18:00,
2013-06-12 06:23:00,58.0,57.2,29.54,SE,133,1.0,9.0,97,0.01,,,0.08,0054,Weather View 32 v70,2013-06-12 10:23:00,
2013-06-12 06:28:00,58.1,57.2,29.54,SW,224,2.0,9.0,97,0.01,,,0.08,0051,Weather View 32 v70,2013-06-12 10:28:00,
2013-06-12 06:33:00,58.2,57.3,29.54,ESE,117,1.0,6.0,97,0.01,,,0.08,0046,Weather View 32 v70,2013-06-12 10:33:00,
2013-06-12 06:38:00,58.3,57.4,29.54,ENE,68,1.0,5.0,97,0.01,,,0.08,0050,Weather View 32 v70,2013-06-12 10:38:00,
2013-06-12 06:43:00,58.5,57.6,29.54,ESE,106,1.0,5.0,97,0.01,,,0.08,0070,Weather View 32 v70,2013-06-12 10:43:00,
2013-06-12 06:48:00,58.6,57.7,29.54,SSW,209,2.0,4.0,97,0.01,,,0.08,0100,Weather View 32 v70,2013-06-12 10:48:00,
2013-06-12 06:53:00,58.8,57.9,29.54,East,83,2.0,4.0,97,0.01,,,0.08,0115,Weather View 32 v70,2013-06-12 10:53:00,
2013-06-12 06:58:00,59.1,58.2,29.54,ENE,63,1.0,4.0,97,0.01,,,0.08,0215,Weather View 32 v70,2013-06-12 10:58:00,
2013-06-12 07:03:00,59.5,58.9,29.54,SE,130,2.0,4.0,98,0.01,,,0.08,0177,Weather View 32 v70,2013-06-12 11:03:00,
2013-06-12 07:08:00,59.9,59.3,29.55,East,92,1.0,4.0,98,0.00,,,0.08,0199,Weather View 32 v70,2013-06-12 11:08:00,
2013-06-12 07:13:00,59.6,58.7,29.54,NE,54,2.0,5.0,97,0.00,,,0.08,0223,Weather View 32 v70,2013-06-12 11:13:00,
2013-06-12 07:18:00,60.1,59.2,29.54,East,86,2.0,5.0,97,0.00,,,0.08,0197,Weather View 32 v70,2013-06-12 11:18:00,
2013-06-12 07:23:00,60.2,59.3,29.54,West,276,1.0,5.0,97,0.00,,,0.08,0352,Weather View 32 v70,2013-06-12 11:23:00,
2013-06-12 07:28:00,60.5,59.6,29.54,NNE,29,5.0,9.0,97,0.00,,,0.08,0310,Weather View 32 v70,2013-06-12 11:28:00,
2013-06-12 07:33:00,60.4,59.5,29.54,ENE,59,3.0,9.0,97,0.00,,,0.08,0205,Weather View 32 v70,2013-06-12 11:33:00,
2013-06-12 07:38:00,59.9,59.0,29.54,SE,129,1.0,9.0,97,0.00,,,0.08,0183,Weather View 32 v70,2013-06-12 11:38:00,
2013-06-12 07:43:00,60.0,59.1,29.54,East,101,2.0,9.0,97,0.00,,,0.08,0201,Weather View 32 v70,2013-06-12 11:43:00,
2013-06-12 07:48:00,60.6,59.7,29.54,ENE,68,2.0,9.0,97,0.00,,,0.08,0235,Weather View 32 v70,2013-06-12 11:48:00,
2013-06-12 07:53:00,60.8,59.9,29.54,ENE,78,2.0,9.0,97,0.00,,,0.08,0193,Weather View 32 v70,2013-06-12 11:53:00,
2013-06-12 07:58:00,61.0,60.1,29.54,SSE,153,1.0,9.0,97,0.00,,,0.08,0256,Weather View 32 v70,2013-06-12 11:58:00,
2013-06-12 08:03:00,60.7,59.8,29.54,East,98,3.0,9.0,97,0.00,,,0.08,0240,Weather View 32 v70,2013-06-12 12:03:00,
2013-06-12 08:08:00,61.2,60.3,29.54,East,97,5.0,9.0,97,0.00,,,0.08,0308,Weather View 32 v70,2013-06-12 12:08:00,
2013-06-12 08:13:00,61.1,60.2,29.54,East,93,4.0,9.0,97,0.00,,,0.08,0236,Weather View 32 v70,2013-06-12 12:13:00,
2013-06-12 08:18:00,61.6,60.7,29.54,East,92,5.0,9.0,97,0.00,,,0.08,0246,Weather View 32 v70,2013-06-12 12:18:00,
2013-06-12 08:23:00,61.6,60.7,29.54,SE,127,2.0,9.0,97,0.00,,,0.08,0268,Weather View 32 v70,2013-06-12 12:23:00,
2013-06-12 08:28:00,61.5,60.3,29.54,East,80,3.0,9.0,96,0.00,,,0.08,0183,Weather View 32 v70,2013-06-12 12:28:00,
2013-06-12 08:33:00,61.3,60.1,29.54,NE,34,1.0,9.0,96,0.00,,,0.08,0165,Weather View 32 v70,2013-06-12 12:33:00,
2013-06-12 08:38:00,61.2,60.0,29.54,ENE,72,2.0,8.0,96,0.00,,,0.08,0222,Weather View 32 v70,2013-06-12 12:38:00,
2013-06-12 08:43:00,61.9,60.7,29.54,SW,233,5.0,8.0,96,0.00,,,0.08,0318,Weather View 32 v70,2013-06-12 12:43:00,
2013-06-12 08:48:00,61.6,60.1,29.54,ENE,66,4.0,10.0,95,0.00,,,0.08,0271,Weather View 32 v70,2013-06-12 12:48:00,
2013-06-12 08:53:00,62.4,60.9,29.54,East,89,4.0,10.0,95,0.00,,,0.08,0481,Weather View 32 v70,2013-06-12 12:53:00,
2013-06-12 08:58:00,62.5,61.0,29.55,NE,44,2.0,10.0,95,0.00,,,0.08,0274,Weather View 32 v70,2013-06-12 12:58:00,
2013-06-12 09:03:00,62.5,60.4,29.54,NNW,335,5.0,10.0,93,0.00,,,0.08,0205,Weather View 32 v70,2013-06-12 13:03:00,
2013-06-12 09:08:00,62.4,60.3,29.54,NNE,16,6.0,10.0,93,0.00,,,0.08,0406,Weather View 32 v70,2013-06-12 13:08:00,
2013-06-12 09:13:00,62.5,60.1,29.54,ENE,70,4.0,10.0,92,0.00,,,0.08,0271,Weather View 32 v70,2013-06-12 13:13:00,
2013-06-12 09:18:00,62.7,60.0,29.55,WNW,302,1.0,10.0,91,0.00,,,0.08,0703,Weather View 32 v70,2013-06-12 13:18:00,
2013-06-12 09:23:00,63.2,60.5,29.54,ESE,108,5.0,10.0,91,0.00,,,0.08,0121,Weather View 32 v70,2013-06-12 13:23:00,
2013-06-12 09:28:00,63.4,60.1,29.55,East,89,3.0,10.0,89,0.00,,,0.08,0576,Weather View 32 v70,2013-06-12 13:28:00,
2013-06-12 09:33:00,63.5,59.9,29.55,NNE,17,3.0,10.0,88,0.00,,,0.08,0543,Weather View 32 v70,2013-06-12 13:33:00,
2013-06-12 09:38:00,64.1,60.1,29.55,ENE,72,4.0,15.0,87,0.00,,,0.08,0650,Weather View 32 v70,2013-06-12 13:38:00,
2013-06-12 09:43:00,64.1,59.2,29.55,ENE,63,9.0,15.0,84,0.00,,,0.08,0621,Weather View 32 v70,2013-06-12 13:43:00,
2013-06-12 09:48:00,64.3,59.0,29.55,NE,48,3.0,15.0,83,0.00,,,0.08,0730,Weather View 32 v70,2013-06-12 13:48:00,
2013-06-12 09:53:00,64.6,59.0,29.55,ENE,59,3.0,15.0,82,0.00,,,0.08,0317,Weather View 32 v70,2013-06-12 13:53:00,
2013-06-12 09:58:00,64.0,57.7,29.55,East,82,8.0,15.0,80,0.00,,,0.08,0630,Weather View 32 v70,2013-06-12 13:58:00,
2013-06-12 10:03:00,64.3,58.0,29.55,North,8,8.0,15.0,80,0.00,,,0.08,0246,Weather View 32 v70,2013-06-12 14:03:00,
2013-06-12 10:08:00,64.2,57.9,29.55,WNW,293,5.0,16.0,80,0.00,,,0.08,0356,Weather View 32 v70,2013-06-12 14:08:00,
2013-06-12 10:13:00,64.7,58.0,29.55,NE,36,4.0,16.0,79,0.00,,,0.08,0408,Weather View 32 v70,2013-06-12 14:13:00,
2013-06-12 10:18:00,65.1,58.0,29.55,NNE,12,5.0,17.0,78,0.00,,,0.08,0393,Weather View 32 v70,2013-06-12 14:18:00,
2013-06-12 10:23:00,64.9,57.1,29.55,North,4,2.0,17.0,76,0.00,,,0.08,0279,Weather View 32 v70,2013-06-12 14:23:00,
2013-06-12 10:28:00,64.8,56.7,29.55,ENE,74,5.0,17.0,75,0.00,,,0.08,0258,Weather View 32 v70,2013-06-12 14:28:00,
2013-06-12 10:33:00,65.0,57.6,29.55,NNW,340,3.0,17.0,77,0.00,,,0.08,0310,Weather View 32 v70,2013-06-12 14:33:00,
2013-06-12 10:38:00,64.9,56.8,29.55,NNE,33,5.0,17.0,75,0.00,,,0.08,0271,Weather View 32 v70,2013-06-12 14:38:00,
2013-06-12 10:43:00,65.0,56.5,29.56,NE,56,3.0,17.0,74,0.00,,,0.08,0231,Weather View 32 v70,2013-06-12 14:43:00,
2013-06-12 10:48:00,64.5,55.2,29.56,ENE,71,7.0,17.0,72,0.00,,,0.08,0310,Weather View 32 v70,2013-06-12 14:48:00,
2013-06-12 10:53:00,64.8,55.5,29.56,NNE,20,7.0,17.0,72,0.00,,,0.08,0355,Weather View 32 v70,2013-06-12 14:53:00,
2013-06-12 10:58:00,65.2,56.3,29.56,NE,49,5.0,17.0,73,0.00,,,0.08,0791,Weather View 32 v70,2013-06-12 14:58:00,
2013-06-12 11:03:00,65.8,56.9,29.56,NNE,30,5.0,17.0,73,0.00,,,0.08,0526,Weather View 32 v70,2013-06-12 15:03:00,
2013-06-12 11:08:00,66.2,56.9,29.56,NNE,15,6.0,17.0,72,0.00,,,0.08,0646,Weather View 32 v70,2013-06-12 15:08:00,
2013-06-12 11:13:00,66.7,56.6,29.55,ENE,65,8.0,17.0,70,0.00,,,0.08,0622,Weather View 32 v70,2013-06-12 15:13:00,
2013-06-12 11:18:00,66.9,56.4,29.56,NNE,13,6.0,17.0,69,0.00,,,0.08,0245,Weather View 32 v70,2013-06-12 15:18:00,
2013-06-12 11:23:00,66.9,56.0,29.56,WSW,241,3.0,21.0,68,0.00,,,0.08,0561,Weather View 32 v70,2013-06-12 15:23:00,
2013-06-12 11:28:00,67.1,55.7,29.56,NNE,13,4.0,21.0,67,0.00,,,0.08,0906,Weather View 32 v70,2013-06-12 15:28:00,
2013-06-12 11:33:00,67.5,55.7,29.56,East,92,4.0,21.0,66,0.00,,,0.08,0696,Weather View 32 v70,2013-06-12 15:33:00,
2013-06-12 11:38:00,67.6,55.4,29.56,NNW,345,2.0,21.0,65,0.00,,,0.08,0454,Weather View 32 v70,2013-06-12 15:38:00,
2013-06-12 11:43:00,67.3,55.5,29.56,NNW,327,10.0,21.0,66,0.00,,,0.08,0264,Weather View 32 v70,2013-06-12 15:43:00,
2013-06-12 11:48:00,66.8,53.8,29.56,ENE,61,6.0,21.0,63,0.00,,,0.08,0659,Weather View 32 v70,2013-06-12 15:48:00,
2013-06-12 11:53:00,67.7,55.9,29.56,East,87,3.0,21.0,66,0.00,,,0.08,0278,Weather View 32 v70,2013-06-12 15:53:00,
2013-06-12 11:58:00,67.2,54.1,29.56,WNW,290,3.0,21.0,63,0.00,,,0.08,0214,Weather View 32 v70,2013-06-12 15:58:00,
2013-06-12 12:03:00,67.4,54.3,29.56,NE,50,8.0,21.0,63,0.00,,,0.08,0927,Weather View 32 v70,2013-06-12 16:03:00,
2013-06-12 12:08:00,67.6,54.5,29.57,NW,324,5.0,21.0,63,0.00,,,0.08,0843,Weather View 32 v70,2013-06-12 16:08:00,
2013-06-12 12:13:00,68.6,55.9,29.57,East,80,7.0,21.0,64,0.00,,,0.08,0564,Weather View 32 v70,2013-06-12 16:13:00,
2013-06-12 12:18:00,67.8,53.8,29.57,NE,51,6.0,21.0,61,0.00,,,0.08,0281,Weather View 32 v70,2013-06-12 16:18:00,
2013-06-12 12:23:00,68.7,55.1,29.57,East,91,5.0,20.0,62,0.00,,,0.08,0860,Weather View 32 v70,2013-06-12 16:23:00,
2013-06-12 12:28:00,68.9,55.3,29.57,East,85,6.0,20.0,62,0.00,,,0.08,0942,Weather View 32 v70,2013-06-12 16:28:00,
2013-06-12 12:33:00,69.4,55.8,29.57,North,5,7.0,20.0,62,0.00,,,0.08,0263,Weather View 32 v70,2013-06-12 16:33:00,
2013-06-12 12:38:00,69.1,55.0,29.58,ESE,102,3.0,20.0,61,0.00,,,0.08,0189,Weather View 32 v70,2013-06-12 16:38:00,
2013-06-12 12:43:00,69.2,55.1,29.58,ENE,69,5.0,20.0,61,0.00,,,0.08,0236,Weather View 32 v70,2013-06-12 16:43:00,
2013-06-12 12:48:00,69.2,55.1,29.58,NE,37,2.0,20.0,61,0.00,,,0.08,0272,Weather View 32 v70,2013-06-12 16:48:00,
2013-06-12 12:53:00,68.8,54.8,29.58,ESE,121,3.0,20.0,61,0.00,,,0.08,0163,Weather View 32 v70,2013-06-12 16:53:00,
2013-06-12 12:58:00,68.7,54.7,29.58,NNE,19,3.0,20.0,61,0.00,,,0.08,0221,Weather View 32 v70,2013-06-12 16:58:00,
2013-06-12 13:03:00,68.1,53.7,29.58,SE,135,5.0,20.0,60,0.00,,,0.08,0199,Weather View 32 v70,2013-06-12 17:03:00,
2013-06-12 13:08:00,67.7,53.7,29.58,ESE,115,4.0,20.0,61,0.00,,,0.08,0775,Weather View 32 v70,2013-06-12 17:08:00,
2013-06-12 13:13:00,67.8,53.8,29.58,North,9,6.0,20.0,61,0.00,,,0.08,0301,Weather View 32 v70,2013-06-12 17:13:00,
2013-06-12 13:18:00,67.9,53.9,29.58,NNW,333,3.0,20.0,61,0.00,,,0.08,0749,Weather View 32 v70,2013-06-12 17:18:00,
2013-06-12 13:23:00,68.7,54.2,29.58,NE,56,12.0,20.0,60,0.00,,,0.08,0706,Weather View 32 v70,2013-06-12 17:23:00,
2013-06-12 13:28:00,69.3,55.2,29.58,NNW,347,5.0,20.0,61,0.00,,,0.08,0270,Weather View 32 v70,2013-06-12 17:28:00,
2013-06-12 13:33:00,69.0,54.5,29.58,East,87,4.0,20.0,60,0.00,,,0.08,0191,Weather View 32 v70,2013-06-12 17:33:00,
2013-06-12 13:38:00,69.2,54.7,29.58,SSW,212,2.0,20.0,60,0.00,,,0.08,0790,Weather View 32 v70,2013-06-12 17:38:00,
2013-06-12 13:43:00,68.7,54.2,29.58,NE,40,6.0,20.0,60,0.00,,,0.08,0221,Weather View 32 v70,2013-06-12 17:43:00,
2013-06-12 13:48:00,68.5,54.0,29.59,ENE,57,4.0,22.0,60,0.00,,,0.08,0314,Weather View 32 v70,2013-06-12 17:48:00,
2013-06-12 13:53:00,69.0,54.5,29.59,NNW,333,6.0,22.0,60,0.00,,,0.08,0708,Weather View 32 v70,2013-06-12 17:53:00,
2013-06-12 13:58:00,69.5,54.5,29.59,NE,39,5.0,22.0,59,0.00,,,0.08,0740,Weather View 32 v70,2013-06-12 17:58:00,
2013-06-12 14:03:00,69.8,54.8,29.59,NNE,16,11.0,22.0,59,0.00,,,0.08,0722,Weather View 32 v70,2013-06-12 18:03:00,
2013-06-12 14:08:00,70.5,55.4,29.59,ESE,116,4.0,22.0,59,0.00,,,0.08,0695,Weather View 32 v70,2013-06-12 18:08:00,
2013-06-12 14:13:00,70.5,55.0,29.59,SE,139,4.0,22.0,58,0.00,,,0.08,0665,Weather View 32 v70,2013-06-12 18:13:00,
2013-06-12 14:18:00,70.3,54.3,29.59,NNW,339,5.0,22.0,57,0.00,,,0.08,0597,Weather View 32 v70,2013-06-12 18:18:00,
2013-06-12 14:24:00,70.1,54.6,29.59,SSW,196,2.0,22.0,58,0.00,,,0.08,0669,Weather View 32 v70,2013-06-12 18:24:00,
2013-06-12 14:29:00,71.0,55.9,29.59,East,86,5.0,22.0,59,0.00,,,0.08,0688,Weather View 32 v70,2013-06-12 18:29:00,
2013-06-12 14:34:00,70.9,55.3,29.60,NW,319,7.0,22.0,58,0.00,,,0.08,0220,Weather View 32 v70,2013-06-12 18:34:00,
2013-06-12 14:39:00,71.1,55.5,29.60,North,11,6.0,22.0,58,0.58,,,0.08,0271,Weather View 32 v70,2013-06-12 18:39:00,
2013-06-12 14:44:00,70.4,54.4,29.60,ENE,65,6.0,22.0,57,0.00,,,0.08,0253,Weather View 32 v70,2013-06-12 18:44:00,
2013-06-12 14:49:00,70.2,54.7,29.60,NW,321,6.0,19.0,58,0.00,,,0.08,0166,Weather View 32 v70,2013-06-12 18:49:00,
2013-06-12 14:54:00,69.7,54.2,29.60,NNW,330,4.0,19.0,58,0.00,,,0.08,0155,Weather View 32 v70,2013-06-12 18:54:00,
2013-06-12 14:59:00,69.8,54.8,29.60,SSE,147,2.0,17.0,59,0.00,,,0.08,0191,Weather View 32 v70,2013-06-12 18:59:00,
2013-06-12 15:04:00,69.8,55.2,29.60,East,99,4.0,17.0,60,0.00,,,0.08,0673,Weather View 32 v70,2013-06-12 19:04:00,
2013-06-12 15:09:00,70.6,55.5,29.60,ESE,107,2.0,17.0,59,0.00,,,0.08,0237,Weather View 32 v70,2013-06-12 19:09:00,
2013-06-12 15:14:00,70.2,54.7,29.60,ENE,63,8.0,17.0,58,0.00,,,0.08,0188,Weather View 32 v70,2013-06-12 19:14:00,
2013-06-12 15:19:00,70.2,54.7,29.60,North,7,5.0,17.0,58,0.00,,,0.08,0235,Weather View 32 v70,2013-06-12 19:19:00,
2013-06-12 15:24:00,70.6,55.1,29.61,NW,320,3.0,17.0,58,0.00,,,0.08,0340,Weather View 32 v70,2013-06-12 19:24:00,
2013-06-12 15:29:00,69.8,53.8,29.61,NNE,32,4.0,17.0,57,0.00,,,0.08,0284,Weather View 32 v70,2013-06-12 19:29:00,
2013-06-12 15:34:00,69.8,54.3,29.61,ESE,117,5.0,17.0,58,0.00,,,0.08,0235,Weather View 32 v70,2013-06-12 19:34:00,
2013-06-12 15:39:00,70.0,55.0,29.61,North,10,5.0,17.0,59,0.00,,,0.08,0171,Weather View 32 v70,2013-06-12 19:39:00,
2013-06-12 15:44:00,69.4,53.9,29.61,NNE,29,3.0,17.0,58,0.00,,,0.08,0154,Weather View 32 v70,2013-06-12 19:44:00,
2013-06-12 15:49:00,68.9,53.5,29.61,SE,131,2.0,20.0,58,0.00,,,0.08,0142,Weather View 32 v70,2013-06-12 19:49:00,
2013-06-12 15:54:00,68.7,53.3,29.62,NNW,343,4.0,20.0,58,0.00,,,0.08,0165,Weather View 32 v70,2013-06-12 19:54:00,
2013-06-12 15:59:00,68.6,53.7,29.62,NNW,339,4.0,20.0,59,0.00,,,0.08,0131,Weather View 32 v70,2013-06-12 19:59:00,
2013-06-12 16:04:00,68.6,53.7,29.62,ENE,62,9.0,20.0,59,0.00,,,0.08,0141,Weather View 32 v70,2013-06-12 20:04:00,
2013-06-12 16:09:00,68.6,54.1,29.62,NW,312,1.0,20.0,60,0.00,,,0.08,0115,Weather View 32 v70,2013-06-12 20:09:00,
2013-06-12 16:14:00,68.2,53.7,29.63,North,354,4.0,20.0,60,0.00,,,0.08,0063,Weather View 32 v70,2013-06-12 20:14:00,
2013-06-12 16:19:00,68.0,54.0,29.63,North,350,4.0,20.0,61,0.00,,,0.08,0082,Weather View 32 v70,2013-06-12 20:19:00,
2013-06-12 16:24:00,67.7,54.6,29.62,NE,37,3.0,20.0,63,0.00,,,0.08,0129,Weather View 32 v70,2013-06-12 20:24:00,
2013-06-12 16:29:00,67.5,54.9,29.62,WNW,295,2.0,20.0,64,0.00,,,0.08,0123,Weather View 32 v70,2013-06-12 20:29:00,
2013-06-12 16:34:00,67.7,55.0,29.62,NE,54,6.0,20.0,64,0.00,,,0.08,0070,Weather View 32 v70,2013-06-12 20:34:00,
2013-06-12 16:39:00,67.7,54.6,29.63,NE,49,5.0,20.0,63,0.00,,,0.08,0084,Weather View 32 v70,2013-06-12 20:39:00,
2013-06-12 16:44:00,67.8,54.7,29.63,North,358,4.0,20.0,63,0.00,,,0.08,0069,Weather View 32 v70,2013-06-12 20:44:00,
2013-06-12 16:49:00,67.5,54.0,29.63,NE,35,2.0,18.0,62,0.00,,,0.08,0025,Weather View 32 v70,2013-06-12 20:49:00,
2013-06-12 16:54:00,66.5,54.3,29.64,NE,48,5.0,15.0,65,0.00,,,0.08,0026,Weather View 32 v70,2013-06-12 20:54:00,
2013-06-12 16:59:00,65.5,55.4,29.64,NNE,29,3.0,15.0,70,0.00,,,0.08,0038,Weather View 32 v70,2013-06-12 20:59:00,
2013-06-12 17:04:00,64.5,55.2,29.64,NE,51,2.0,15.0,72,0.00,,,0.08,0051,Weather View 32 v70,2013-06-12 21:04:00,
2013-06-12 17:09:00,64.1,55.6,29.65,North,350,2.0,15.0,74,0.00,,,0.08,0053,Weather View 32 v70,2013-06-12 21:09:00,
2013-06-12 17:15:00,64.1,56.0,29.65,WSW,254,0.0,15.0,75,0.00,,,0.08,0055,Weather View 32 v70,2013-06-12 21:15:00,
2013-06-12 17:20:00,64.0,56.6,29.65,North,355,1.0,15.0,77,0.58,,,0.08,0038,Weather View 32 v70,2013-06-12 21:20:00,
2013-06-12 17:25:00,64.0,56.6,29.65,NE,42,0.0,15.0,77,0.58,,,0.08,0050,Weather View 32 v70,2013-06-12 21:25:00,
2013-06-12 17:30:00,63.9,56.9,29.65,WNW,295,0.0,15.0,78,0.00,,,0.08,0057,Weather View 32 v70,2013-06-12 21:30:00,
2013-06-12 17:35:00,64.0,57.0,29.65,NNE,19,2.0,15.0,78,0.00,,,0.08,0065,Weather View 32 v70,2013-06-12 21:35:00,
2013-06-12 17:40:00,64.2,57.2,29.65,NNE,32,2.0,15.0,78,0.00,,,0.08,0105,Weather View 32 v70,2013-06-12 21:40:00,
2013-06-12 17:45:00,64.4,57.4,29.65,North,10,3.0,15.0,78,0.00,,,0.08,0135,Weather View 32 v70,2013-06-12 21:45:00,
2013-06-12 17:50:00,64.9,57.9,29.65,NW,307,2.0,15.0,78,0.00,,,0.08,0127,Weather View 32 v70,2013-06-12 21:50:00,
2013-06-12 17:55:00,65.2,57.8,29.65,NE,38,1.0,14.0,77,0.00,,,0.08,0111,Weather View 32 v70,2013-06-12 21:55:00,
2013-06-12 18:00:00,65.5,57.3,29.65,NE,38,2.0,9.0,75,0.00,,,0.08,0088,Weather View 32 v70,2013-06-12 22:00:00,
2013-06-12 18:05:00,65.7,57.2,29.65,North,358,5.0,9.0,74,0.00,,,0.08,0033,Weather View 32 v70,2013-06-12 22:05:00,
2013-06-12 18:10:00,65.5,57.3,29.65,NNW,336,2.0,9.0,75,0.00,,,0.08,0035,Weather View 32 v70,2013-06-12 22:10:00,
2013-06-12 18:15:00,65.6,57.4,29.66,NW,306,2.0,9.0,75,0.00,,,0.08,0060,Weather View 32 v70,2013-06-12 22:15:00,
2013-06-12 18:20:00,65.8,57.6,29.66,NE,47,1.0,9.0,75,0.00,,,0.08,0062,Weather View 32 v70,2013-06-12 22:20:00,
2013-06-12 18:25:00,65.9,57.4,29.66,East,86,1.0,9.0,74,0.00,,,0.08,0064,Weather View 32 v70,2013-06-12 22:25:00,
2013-06-12 18:30:00,66.1,56.8,29.66,NE,54,2.0,9.0,72,0.00,,,0.08,0066,Weather View 32 v70,2013-06-12 22:30:00,
2013-06-12 18:35:00,66.3,56.6,29.67,North,3,3.0,9.0,71,0.00,,,0.08,0076,Weather View 32 v70,2013-06-12 22:35:00,
2013-06-12 18:40:00,66.4,56.7,29.66,NNE,20,3.0,9.0,71,0.00,,,0.08,0060,Weather View 32 v70,2013-06-12 22:40:00,
2013-06-12 18:45:00,66.6,56.1,29.67,NNW,328,0.0,9.0,69,0.00,,,0.08,0063,Weather View 32 v70,2013-06-12 22:45:00,
2013-06-12 18:50:00,66.5,56.4,29.67,North,5,2.0,9.0,70,0.00,,,0.08,0048,Weather View 32 v70,2013-06-12 22:50:00,
2013-06-12 18:55:00,66.5,55.6,29.68,SW,220,2.0,9.0,68,0.00,,,0.08,0046,Weather View 32 v70,2013-06-12 22:55:00,
2013-06-12 19:00:00,66.5,54.8,29.68,NNW,332,2.0,9.0,66,0.00,,,0.08,0055,Weather View 32 v70,2013-06-12 23:00:00,
2013-06-12 19:05:00,66.7,54.5,29.68,NNE,15,2.0,9.0,65,0.00,,,0.08,0060,Weather View 32 v70,2013-06-12 23:05:00,
2013-06-12 19:10:00,66.6,54.9,29.68,North,8,3.0,12.0,66,0.00,,,0.08,0047,Weather View 32 v70,2013-06-12 23:10:00,
2013-06-12 19:15:00,66.6,54.9,29.68,North,356,2.0,12.0,66,0.00,,,0.08,0054,Weather View 32 v70,2013-06-12 23:15:00,
2013-06-12 19:20:00,66.5,54.3,29.68,NNW,338,4.0,12.0,65,0.00,,,0.08,0035,Weather View 32 v70,2013-06-12 23:20:00,
2013-06-12 19:25:00,66.4,54.7,29.69,ENE,75,2.0,12.0,66,0.00,,,0.08,0043,Weather View 32 v70,2013-06-12 23:25:00,
2013-06-12 19:30:00,66.3,54.6,29.69,NNW,335,2.0,12.0,66,0.00,,,0.08,0050,Weather View 32 v70,2013-06-12 23:30:00,
2013-06-12 19:35:00,66.3,54.6,29.70,NNE,32,5.0,12.0,66,0.00,,,0.08,0056,Weather View 32 v70,2013-06-12 23:35:00,
2013-06-12 19:40:00,66.4,54.7,29.69,NNE,31,3.0,12.0,66,0.00,,,0.08,0045,Weather View 32 v70,2013-06-12 23:40:00,
2013-06-12 19:45:00,66.4,55.1,29.69,NE,42,2.0,12.0,67,0.00,,,0.08,0019,Weather View 32 v70,2013-06-12 23:45:00,
2013-06-12 19:50:00,66.2,54.9,29.70,NE,43,1.0,12.0,67,0.00,,,0.08,0014,Weather View 32 v70,2013-06-12 23:50:00,
2013-06-12 19:55:00,66.1,55.2,29.70,North,353,0.0,12.0,68,0.00,,,0.08,0014,Weather View 32 v70,2013-06-12 23:55:00,
2013-06-12 20:00:00,65.4,55.3,29.70,WNW,284,2.0,12.0,70,0.00,,,0.08,0011,Weather View 32 v70,2013-06-13 00:00:00,
2013-06-12 20:05:00,65.1,55.4,29.70,NW,325,0.0,12.0,71,0.00,,,0.08,0009,Weather View 32 v70,2013-06-13 00:05:00,
2013-06-12 20:10:00,64.7,55.4,29.70,NNW,346,0.0,10.0,72,0.00,,,0.08,0007,Weather View 32 v70,2013-06-13 00:10:00,
2013-06-12 20:15:00,64.3,55.4,29.70,NNW,337,0.0,10.0,73,0.00,,,0.08,0005,Weather View 32 v70,2013-06-13 00:15:00,
2013-06-12 20:20:00,64.1,55.6,29.70,NE,39,1.0,10.0,74,0.00,,,0.08,0004,Weather View 32 v70,2013-06-13 00:20:00,
2013-06-12 20:25:00,63.9,55.4,29.71,North,352,2.0,8.0,74,0.00,,,0.08,0003,Weather View 32 v70,2013-06-13 00:25:00,
2013-06-12 20:30:00,63.9,55.4,29.71,WSW,248,0.0,8.0,74,0.00,,,0.08,0002,Weather View 32 v70,2013-06-13 00:30:00,
2013-06-12 20:35:00,63.7,55.6,29.71,NNW,331,2.0,8.0,75,0.00,,,0.08,0002,Weather View 32 v70,2013-06-13 00:35:00,
2013-06-12 20:40:00,63.7,55.6,29.71,North,11,1.0,8.0,75,0.00,,,0.08,0002,Weather View 32 v70,2013-06-13 00:40:00,
2013-06-12 20:45:00,63.6,55.5,29.71,West,276,1.0,8.0,75,0.00,,,0.08,0002,Weather View 32 v70,2013-06-13 00:45:00,
2013-06-12 20:50:00,63.7,55.2,29.72,NNW,341,2.0,4.0,74,0.00,,,0.08,0002,Weather View 32 v70,2013-06-13 00:50:00,
2013-06-12 20:55:00,63.7,55.2,29.72,North,7,1.0,4.0,74,0.00,,,0.08,0002,Weather View 32 v70,2013-06-13 00:55:00,
2013-06-12 21:00:00,63.8,55.3,29.72,NE,53,2.0,4.0,74,0.00,,,0.08,0002,Weather View 32 v70,2013-06-13 01:00:00,
2013-06-12 21:05:00,63.8,55.7,29.72,NNE,23,1.0,4.0,75,0.00,,,0.08,0002,Weather View 32 v70,2013-06-13 01:05:00,
2013-06-12 21:10:00,63.8,55.3,29.73,NNW,338,2.0,5.0,74,0.00,,,0.08,0002,Weather View 32 v70,2013-06-13 01:10:00,
2013-06-12 21:15:00,63.8,55.3,29.73,NNW,337,2.0,5.0,74,0.00,,,0.08,0002,Weather View 32 v70,2013-06-13 01:15:00,
2013-06-12 21:20:00,63.8,55.0,29.73,WSW,246,2.0,5.0,73,0.00,,,0.08,0002,Weather View 32 v70,2013-06-13 01:20:00,
2013-06-12 21:25:00,64.0,54.8,29.74,NNW,330,2.0,5.0,72,0.00,,,0.08,0002,Weather View 32 v70,2013-06-13 01:25:00,
2013-06-12 21:30:00,64.0,54.8,29.74,West,266,1.0,7.0,72,0.00,,,0.08,0002,Weather View 32 v70,2013-06-13 01:30:00,
2013-06-12 21:35:00,64.0,54.8,29.74,WSW,255,1.0,7.0,72,0.00,,,0.08,0002,Weather View 32 v70,2013-06-13 01:35:00,
2013-06-12 21:40:00,64.0,55.1,29.74,WSW,256,0.0,7.0,73,0.00,,,0.08,0002,Weather View 32 v70,2013-06-13 01:40:00,
2013-06-12 21:45:00,63.9,55.1,29.74,NW,319,1.0,7.0,73,0.00,,,0.08,0002,Weather View 32 v70,2013-06-13 01:45:00,
2013-06-12 21:50:00,63.7,54.9,29.75,NNW,345,1.0,7.0,73,0.00,,,0.08,0002,Weather View 32 v70,2013-06-13 01:50:00,
2013-06-12 21:55:00,63.6,55.1,29.75,WNW,301,1.0,7.0,74,0.00,,,0.08,0002,Weather View 32 v70,2013-06-13 01:55:00,
2013-06-12 22:00:00,63.6,55.1,29.75,NW,319,1.0,7.0,74,0.00,,,0.08,0002,Weather View 32 v70,2013-06-13 02:00:00,
2013-06-12 22:05:00,63.5,55.0,29.75,NNW,346,2.0,7.0,74,0.00,,,0.08,0002,Weather View 32 v70,2013-06-13 02:05:00,
2013-06-12 22:10:00,63.5,54.7,29.75,NNW,344,1.0,7.0,73,0.00,,,0.08,0002,Weather View 32 v70,2013-06-13 02:10:00,
2013-06-12 22:15:00,63.4,54.9,29.75,East,88,0.0,7.0,74,0.00,,,0.08,0002,Weather View 32 v70,2013-06-13 02:15:00,
2013-06-12 22:20:00,63.3,54.5,29.75,NNW,340,1.0,7.0,73,0.00,,,0.08,0002,Weather View 32 v70,2013-06-13 02:20:00,
2013-06-12 22:25:00,63.2,54.8,29.75,West,262,0.0,7.0,74,0.00,,,0.08,0002,Weather View 32 v70,2013-06-13 02:25:00,
2013-06-12 22:30:00,63.1,54.7,29.75,North,350,1.0,5.0,74,0.00,,,0.08,0002,Weather View 32 v70,2013-06-13 02:30:00,
2013-06-12 22:35:00,63.0,54.9,29.75,ESE,119,1.0,4.0,75,0.00,,,0.08,0002,Weather View 32 v70,2013-06-13 02:35:00,
2013-06-12 22:40:00,62.8,54.7,29.75,ENE,72,0.0,4.0,75,0.00,,,0.08,0002,Weather View 32 v70,2013-06-13 02:40:00,
2013-06-12 22:45:00,62.6,54.9,29.75,West,262,1.0,4.0,76,0.00,,,0.08,0002,Weather View 32 v70,2013-06-13 02:45:00,
2013-06-12 22:50:00,62.3,54.6,29.75,WNW,285,1.0,4.0,76,0.00,,,0.08,0002,Weather View 32 v70,2013-06-13 02:50:00,
2013-06-12 22:55:00,62.0,54.3,29.75,SW,235,0.0,4.0,76,0.00,,,0.08,0002,Weather View 32 v70,2013-06-13 02:55:00,
2013-06-12 23:00:00,61.7,54.0,29.76,WSW,242,1.0,4.0,76,0.00,,,0.08,0002,Weather View 32 v70,2013-06-13 03:00:00,
2013-06-12 23:05:00,61.2,53.9,29.75,NNW,341,0.0,3.0,77,0.00,,,0.08,0002,Weather View 32 v70,2013-06-13 03:05:00,
2013-06-12 23:10:00,60.9,54.0,29.75,NNW,341,0.0,3.0,78,0.00,,,0.08,0002,Weather View 32 v70,2013-06-13 03:10:00,
2013-06-12 23:15:00,60.4,53.5,29.75,NNW,332,0.0,3.0,78,0.00,,,0.08,0002,Weather View 32 v70,2013-06-13 03:15:00,
2013-06-12 23:20:00,60.0,53.5,29.75,NNW,333,0.0,3.0,79,0.00,,,0.08,0002,Weather View 32 v70,2013-06-13 03:20:00,
2013-06-12 23:25:00,59.6,53.1,29.75,NNW,334,0.0,3.0,79,0.00,,,0.08,0002,Weather View 32 v70,2013-06-13 03:25:00,
2013-06-12 23:30:00,59.3,53.1,29.74,NNW,334,0.0,3.0,80,0.00,,,0.08,0002,Weather View 32 v70,2013-06-13 03:30:00,
2013-06-12 23:35:00,59.1,52.9,29.74,NNW,339,0.0,3.0,80,0.00,,,0.08,0002,Weather View 32 v70,2013-06-13 03:35:00,
2013-06-12 23:40:00,58.9,53.1,29.74,NNW,340,0.0,3.0,81,0.00,,,0.08,0002,Weather View 32 v70,2013-06-13 03:40:00,
2013-06-12 23:45:00,58.7,52.9,29.74,NNE,22,0.0,3.0,81,0.00,,,0.08,0002,Weather View 32 v70,2013-06-13 03:45:00,
2013-06-12 23:50:00,58.6,53.1,29.74,NNE,22,0.0,3.0,82,0.00,,,0.08,0002,Weather View 32 v70,2013-06-13 03:50:00,
2013-06-12 23:55:00,58.4,52.9,29.75,NNE,24,0.0,3.0,82,0.00,,,0.08,0002,Weather View 32 v70,2013-06-13 03:55:00,